CW8033 Weather Reports


Display with metric or nautical units.
time (UTC)temp
F
wind
direction
speed
MPH
gust
MPH
rain 1hr
in
rain 24hr
in
rain mn
in
humidity
%
barometer
mb
20260506232933 49 257 3.0 8.0 0.00 0.00 0.00 85 1008.5
20260506232433 49 294 3.0 8.0 0.00 0.00 0.00 85 1008.5
20260506232234 49 254 3.0 7.0 0.00 0.00 0.00 85 1008.4
20260506231429 49 296 3.0 7.0 0.00 0.00 0.00 84 1008.4
20260506230929 49 286 4.0 8.0 0.00 0.00 0.00 84 1008.4
20260506230437 49 290 4.0 8.0 0.00 0.00 0.00 84 1008.3
20260506225930 49 264 3.0 6.0 0.00 0.00 0.00 84 1008.3
20260506225430 49 296 2.0 6.0 0.00 0.01 0.00 84 1008.3
20260506224930 49 259 3.0 8.0 0.00 0.01 0.00 84 1008.3
20260506224429 49 270 4.0 8.0 0.00 0.01 0.00 84 1008.2
20260506223930 49 264 3.0 8.0 0.00 0.01 0.00 84 1008.2
20260506223429 49 267 4.0 8.0 0.00 0.01 0.00 84 1008.1
20260506222929 49 319 5.0 8.0 0.00 0.01 0.00 84 1008.1
20260506222430 49 284 5.0 8.0 0.00 0.01 0.00 84 1008.1
20260506221931 49 259 6.0 9.0 0.00 0.01 0.00 84 1008.1
20260506221430 49 250 6.0 9.0 0.00 0.01 0.00 84 1008.0
20260506221235 49 267 6.0 9.0 0.00 0.01 0.00 84 1007.9
20260506220429 49 259 5.0 8.0 0.00 0.01 0.00 84 1007.9
20260506215931 49 279 4.0 7.0 0.00 0.01 0.01 84 1007.9
20260506215429 49 295 4.0 7.0 0.00 0.01 0.01 84 1007.9
20260506214931 49 260 3.0 5.0 0.00 0.01 0.01 84 1007.9
20260506214429 50 235 3.0 5.0 0.00 0.01 0.01 84 1007.8
20260506213930 50 231 3.0 5.0 0.00 0.01 0.01 84 1007.8
20260506213428 50 242 2.0 5.0 0.00 0.01 0.01 84 1007.7
20260506212929 50 248 2.0 5.0 0.00 0.01 0.01 83 1007.6
20260506212429 50 248 1.0 5.0 0.00 0.01 0.01 83 1007.6
20260506211929 50 248 2.0 5.0 0.00 0.01 0.01 83 1007.6
20260506211431 50 288 2.0 5.0 0.00 0.01 0.01 83 1007.5
20260506210930 50 290 2.0 5.0 0.00 0.01 0.01 83 1007.5
20260506210430 50 303 2.0 7.0 0.00 0.01 0.01 83 1007.4
20260506210239 50 329 2.0 7.0 0.00 0.01 0.01 83 1007.3
20260506205431 50 312 2.0 6.0 0.00 0.01 0.01 83 1007.4
20260506204929 50 248 2.0 5.0 0.00 0.01 0.01 83 1007.3
20260506204429 50 255 3.0 5.0 0.00 0.01 0.01 83 1007.3
20260506204229 50 241 3.0 7.0 0.00 0.01 0.01 83 1007.3
20260506203431 50 261 4.0 7.0 0.00 0.01 0.01 83 1007.2
20260506203235 50 255 3.0 9.0 0.00 0.01 0.01 82 1007.2
20260506202740 50 261 4.0 9.0 0.00 0.01 0.01 82 1007.3
20260506201929 50 244 4.0 8.0 0.00 0.01 0.01 82 1007.1
20260506201428 50 269 4.0 7.0 0.00 0.01 0.01 82 1007.1
20260506200930 51 244 4.0 7.0 0.00 0.01 0.01 82 1007.0
20260506200732 51 258 3.0 6.0 0.00 0.01 0.01 82 1006.9
20260506195930 51 273 3.0 7.0 0.00 0.01 0.01 82 1006.9
20260506195432 51 271 3.0 7.0 0.00 0.01 0.01 82 1006.8
20260506194931 51 248 3.0 7.0 0.00 0.01 0.01 82 1006.8
20260506194735 51 238 3.0 6.0 0.00 0.01 0.01 82 1006.8
20260506194224 51 288 3.0 6.0 0.00 0.01 0.01 83 1006.8
20260506193430 51 315 3.0 6.0 0.00 0.01 0.01 82 1006.8
20260506193230 51 225 3.0 6.0 0.00 0.01 0.01 82 1006.7
20260506192429 51 279 4.0 7.0 0.00 0.01 0.01 82 1006.6
20260506191929 51 273 3.0 7.0 0.00 0.01 0.01 82 1006.6
20260506191431 51 266 3.0 7.0 0.00 0.01 0.01 82 1006.5
20260506191247 51 264 4.0 7.0 0.00 0.02 0.01 82 1006.4
20260506190426 52 263 4.0 9.0 0.00 0.02 0.01 82 1006.4
20260506190114 52 289 4.0 8.0 0.00 0.02 0.01 82 1006.2
20260506190011 52 285 4.0 9.0 0.00 0.02 0.01 82 1006.2
20260506184904 52 279 3.0 8.0 0.00 0.02 0.01 82 1006.0
20260506184402 52 300 3.0 8.0 0.00 0.02 0.01 81 1005.9
20260506183901 52 256 4.0 8.0 0.00 0.02 0.01 81 1005.9
20260506183402 52 291 5.0 9.0 0.00 0.02 0.01 82 1005.9
20260506182903 52 340 5.0 9.0 0.00 0.02 0.01 82 1005.8
20260506182402 52 297 5.0 9.0 0.00 0.02 0.01 81 1005.7
20260506181910 53 294 4.0 9.0 0.00 0.02 0.01 81 1005.7
20260506181401 53 268 3.0 7.0 0.00 0.02 0.01 82 1005.6
20260506180903 53 271 4.0 9.0 0.00 0.02 0.01 81 1005.6
20260506180402 53 289 3.0 9.0 0.00 0.02 0.01 81 1005.4
20260506180203 53 275 3.0 6.0 0.00 0.02 0.01 82 1005.5
20260506175656 53 284 3.0 8.0 0.00 0.02 0.01 82 1005.4
20260506174903 53 302 4.0 10.0 0.00 0.03 0.01 81 1005.4
20260506174403 53 282 5.0 10.0 0.00 0.03 0.01 81 1005.4
20260506173902 53 255 5.0 11.0 0.00 0.03 0.01 81 1005.3
20260506173402 53 309 6.0 11.0 0.00 0.03 0.01 80 1005.3
20260506172902 53 339 5.0 9.0 0.00 0.03 0.01 80 1005.2
20260506172708 54 309 4.0 8.0 0.00 0.03 0.01 80 1005.2
20260506171901 54 329 6.0 13.0 0.00 0.03 0.01 80 1005.2
20260506171401 54 317 6.0 13.0 0.00 0.03 0.01 79 1005.1
20260506171034 54 299 5.0 11.0 0.00 0.03 0.01 80 1005.1
20260506171001 54 332 5.0 11.0 0.00 0.03 0.01 80 1005.0
20260506170323 55 299 3.0 9.0 0.00 0.03 0.01 80 1005.0
20260506165953 54 290 4.0 10.0 0.00 0.03 0.01 80 1004.9
20260506164901 55 319 3.0 9.0 0.00 0.03 0.01 80 1004.9
20260506164705 55 250 4.0 8.0 0.00 0.03 0.01 80 1004.9
20260506163902 54 238 5.0 8.0 0.00 0.03 0.01 80 1004.9
20260506163400 54 297 5.0 12.0 0.00 0.03 0.01 80 1004.9
20260506162902 55 324 6.0 13.0 0.00 0.03 0.01 79 1004.8
20260506162402 55 348 6.0 13.0 0.00 0.03 0.01 79 1004.8
20260506161902 55 305 4.0 9.0 0.00 0.03 0.01 80 1004.8
20260506161403 55 289 5.0 12.0 0.00 0.03 0.01 79 1004.8
20260506161248 55 258 7.0 15.0 0.00 0.03 0.01 79 1004.7
20260506160751 55 280 7.0 15.0 0.00 0.03 0.01 79 1004.8
20260506155904 55 311 6.0 12.0 0.00 0.03 0.01 79 1004.7
20260506155402 56 296 5.0 12.0 0.00 0.03 0.01 79 1004.7
20260506154902 56 282 6.0 11.0 0.00 0.03 0.01 79 1004.6
20260506154707 56 346 8.0 15.0 0.00 0.03 0.01 78 1004.7
20260506153901 56 278 8.0 15.0 0.00 0.03 0.01 78 1004.7
20260506153403 56 323 7.0 13.0 0.00 0.03 0.01 79 1004.7
20260506153206 56 287 7.0 13.0 0.00 0.03 0.01 80 1004.7
20260506152402 56 274 8.0 13.0 0.00 0.03 0.01 79 1004.7
20260506151901 56 253 8.0 13.0 0.00 0.03 0.01 80 1004.7
20260506151400 55 244 8.0 13.0 0.00 0.03 0.01 80 1004.7
20260506150901 55 262 8.0 14.0 0.00 0.03 0.01 81 1004.6
20260506150401 56 291 7.0 14.0 0.00 0.03 0.01 81 1004.6
20260506150204 56 279 7.0 15.0 0.00 0.03 0.01 82 1004.6
20260506145707 56 262 7.0 15.0 0.00 0.03 0.01 82 1004.6
20260506145021 56 273 8.0 13.0 0.00 0.04 0.01 80 1004.5
20260506144952 56 276 7.0 13.0 0.00 0.03 0.01 81 1004.5
20260506143901 56 290 8.0 13.0 0.00 0.04 0.01 80 1004.4
20260506143404 56 256 7.0 13.0 0.00 0.04 0.01 82 1004.4
20260506142902 56 315 7.0 13.0 0.00 0.04 0.01 82 1004.4
20260506142356 56 265 7.0 13.0 0.00 0.04 0.01 83 1004.3
20260506142155 56 294 6.0 12.0 0.00 0.05 0.01 82 1004.2
20260506141344 56 251 6.0 11.0 0.00 0.05 0.01 83 1004.3
20260506140832 56 311 7.0 12.0 0.00 0.05 0.01 84 1004.3
20260506140331 55 239 6.0 12.0 0.00 0.05 0.01 84 1004.2
20260506135826 55 305 6.0 13.0 0.00 0.05 0.01 84 1004.2
20260506135319 55 276 6.0 13.0 0.00 0.05 0.01 84 1004.3
20260506134809 55 261 6.0 15.0 0.00 0.06 0.01 85 1004.2
20260506134304 55 263 7.0 15.0 0.00 0.06 0.01 84 1004.3
20260506133801 55 246 7.0 13.0 0.00 0.06 0.01 85 1004.3
20260506133301 56 243 7.0 16.0 0.00 0.06 0.01 84 1004.2
20260506132802 56 227 8.0 16.0 0.00 0.06 0.01 83 1004.2
20260506132305 56 294 8.0 16.0 0.00 0.06 0.01 81 1004.1
20260506131804 57 244 10.0 16.0 0.00 0.06 0.01 80 1004.1
20260506131302 57 252 7.0 15.0 0.00 0.06 0.01 80 1004.1
20260506131121 57 208 5.0 13.0 0.00 0.06 0.01 81 1004.0
20260506130301 56 232 5.0 10.0 0.00 0.06 0.01 83 1004.0
20260506125801 56 250 6.0 14.0 0.00 0.06 0.01 82 1004.0
20260506125301 58 252 8.0 14.0 0.00 0.06 0.01 79 1004.1
20260506124802 58 205 8.0 19.0 0.00 0.06 0.01 78 1004.1
20260506124301 59 209 7.0 19.0 0.00 0.07 0.01 75 1004.0
20260506123801 58 230 10.0 18.0 0.00 0.07 0.01 76 1004.0
20260506123304 59 205 8.0 18.0 0.00 0.07 0.01 75 1004.0
20260506122800 59 193 6.0 13.0 0.00 0.07 0.01 76 1003.9
20260506122306 59 172 6.0 12.0 0.00 0.08 0.01 76 1004.0
20260506121803 58 199 7.0 16.0 0.00 0.08 0.01 78 1004.0
20260506121301 57 180 8.0 16.0 0.00 0.08 0.01 78 1004.0
20260506120801 57 185 8.0 13.0 0.00 0.09 0.01 77 1004.0
20260506120302 57 188 7.0 13.0 0.00 0.09 0.01 77 1004.1
20260506115802 58 184 7.0 11.0 0.00 0.09 0.01 76 1004.1
20260506115306 58 184 7.0 12.0 0.00 0.09 0.01 76 1004.0
20260506114802 58 184 7.0 12.0 0.00 0.09 0.01 75 1004.0
20260506114300 58 192 7.0 14.0 0.00 0.09 0.01 76 1004.0
20260506113801 58 194 7.0 14.0 0.00 0.09 0.01 77 1004.0
20260506113301 57 184 6.0 13.0 0.00 0.10 0.01 79 1004.0
20260506112801 58 215 7.0 13.0 0.00 0.10 0.01 77 1004.0
20260506112301 57 212 8.0 13.0 0.00 0.10 0.01 77 1004.1
20260506111801 58 215 9.0 16.0 0.00 0.10 0.01 76 1004.0
20260506111310 59 196 9.0 16.0 0.00 0.10 0.01 75 1004.0
20260506110800 59 216 7.0 15.0 0.00 0.10 0.01 77 1004.0
20260506110620 58 178 6.0 12.0 0.00 0.10 0.01 77 1004.0
20260506105802 58 177 7.0 13.0 0.00 0.10 0.01 79 1003.9
20260506105305 58 217 8.0 13.0 0.00 0.10 0.01 77 1004.0
20260506104801 58 218 9.0 15.0 0.00 0.10 0.01 78 1004.0
20260506104300 58 199 8.0 15.0 0.00 0.10 0.01 78 1003.9
20260506103802 58 213 7.0 13.0 0.00 0.10 0.01 79 1003.9
20260506103302 57 248 5.0 11.0 0.00 0.10 0.01 80 1003.8
20260506102802 57 254 6.0 11.0 0.00 0.10 0.01 79 1003.9
20260506102305 57 208 6.0 11.0 0.00 0.10 0.01 81 1004.0
20260506101801 56 196 7.0 14.0 0.00 0.10 0.01 83 1004.0
20260506101611 55 250 7.0 14.0 0.00 0.10 0.01 82 1003.9
20260506100802 56 198 7.0 12.0 0.00 0.10 0.01 82 1003.9
20260506100302 56 236 8.0 13.0 0.00 0.10 0.01 82 1003.9
20260506095802 56 216 7.0 13.0 0.00 0.10 0.01 82 1003.9
20260506095305 56 213 6.0 11.0 0.00 0.10 0.01 85 1003.9
20260506094801 55 217 6.0 10.0 0.00 0.10 0.01 86 1004.0
20260506094301 55 238 8.0 14.0 0.00 0.10 0.01 87 1004.0
20260506093804 55 190 7.0 14.0 0.00 0.10 0.01 85 1004.0
20260506093302 55 185 6.0 12.0 0.00 0.10 0.01 86 1003.9
20260506092751 54 193 6.0 12.0 0.00 0.10 0.01 86 1003.9
20260506092249 54 232 5.0 12.0 0.00 0.10 0.01 86 1004.0
20260506092051 54 206 4.0 10.0 0.00 0.10 0.01 87 1003.9
20260506091232 54 200 5.0 10.0 0.00 0.10 0.01 86 1003.9
20260506090731 54 196 6.0 13.0 0.00 0.10 0.01 86 1003.9
20260506090222 54 183 6.0 13.0 0.00 0.10 0.01 86 1003.9
20260506085718 53 209 6.0 12.0 0.00 0.10 0.01 87 1003.9
20260506085214 53 229 6.0 12.0 0.00 0.10 0.01 86 1003.9
20260506084704 53 213 6.0 12.0 0.00 0.10 0.01 86 1003.8
20260506084503 53 183 6.0 12.0 0.00 0.10 0.01 87 1003.7
20260506083701 53 205 6.0 10.0 0.00 0.10 0.01 87 1003.7
20260506083512 53 259 7.0 12.0 0.00 0.10 0.01 86 1003.7
20260506082701 53 219 7.0 13.0 0.00 0.10 0.01 86 1003.7
20260506082202 53 181 6.0 13.0 0.00 0.10 0.01 86 1003.7
20260506081701 53 195 6.0 13.0 0.00 0.10 0.01 86 1003.6
20260506081200 53 223 8.0 13.0 0.00 0.10 0.01 85 1003.6
20260506080701 53 194 7.0 13.0 0.00 0.10 0.01 85 1003.6
20260506080512 53 190 7.0 13.0 0.00 0.10 0.01 86 1003.5
20260506073201 53 207 6.0 11.0 0.00 0.10 0.01 86 1003.6
20260506072701 53 230 6.0 12.0 0.00 0.10 0.01 87 1003.5
20260506072204 53 180 5.0 12.0 0.00 0.10 0.01 87 1003.6
20260506071701 52 197 6.0 11.0 0.00 0.10 0.01 87 1003.6
20260506071510 52 171 6.0 11.0 0.00 0.10 0.01 87 1003.6
20260506071017 52 184 7.0 12.0 0.00 0.10 0.01 87 1003.6
20260506070202 53 230 7.0 13.0 0.00 0.10 0.01 87 1003.6
20260506062201 52 182 6.0 12.0 0.00 0.10 0.01 87 1003.7
20260506061700 52 187 6.0 13.0 0.00 0.10 0.01 88 1003.6
20260506061202 52 184 7.0 13.0 0.00 0.10 0.01 88 1003.7
20260506060702 52 196 5.0 10.0 0.00 0.10 0.01 88 1003.6
20260506060204 52 186 5.0 10.0 0.00 0.10 0.01 88 1003.6
20260506051201 51 207 6.0 14.0 0.00 0.10 0.01 90 1003.3
20260506050702 51 216 6.0 10.0 0.00 0.10 0.01 90 1003.3
20260506050201 51 186 5.0 10.0 0.00 0.10 0.01 90 1003.3
20260506044701 51 188 6.0 12.0 0.00 0.10 0.01 91 1003.5
20260506044201 51 209 7.0 12.0 0.00 0.10 0.01 91 1003.5
20260506043703 51 194 6.0 11.0 0.00 0.10 0.01 91 1003.5
20260506043201 51 206 5.0 9.0 0.00 0.10 0.01 91 1003.5
20260506042702 51 186 5.0 9.0 0.00 0.10 0.01 91 1003.6
20260506042507 51 203 6.0 10.0 0.00 0.10 0.01 91 1003.6
20260506041700 51 219 7.0 10.0 0.00 0.10 0.01 91 1003.6
20260506041201 52 196 6.0 9.0 0.00 0.10 0.01 91 1003.7
20260506040702 52 180 5.0 9.0 0.00 0.10 0.01 91 1003.6
20260506040201 51 184 5.0 11.0 0.00 0.10 0.01 91 1003.6
20260506035701 52 194 6.0 12.0 0.00 0.10 0.01 91 1003.6
20260506035202 51 165 5.0 12.0 0.00 0.10 0.01 91 1003.8
20260506034701 51 182 5.0 10.0 0.00 0.10 0.01 91 1003.8
20260506034203 52 190 5.0 10.0 0.00 0.10 0.01 91 1003.9
20260506033701 52 188 5.0 10.0 0.00 0.10 0.01 91 1003.9
20260506033200 52 211 6.0 10.0 0.00 0.10 0.01 91 1003.8
20260506032701 52 186 6.0 11.0 0.00 0.10 0.01 91 1003.8
20260506032202 52 209 6.0 11.0 0.00 0.10 0.01 91 1003.8
20260506031702 52 195 6.0 10.0 0.00 0.10 0.01 91 1003.7
20260506031201 52 183 6.0 11.0 0.00 0.10 0.01 91 1003.8
20260506030702 52 175 6.0 11.0 0.00 0.10 0.01 91 1003.9
20260506030201 52 210 5.0 9.0 0.00 0.10 0.01 91 1003.9
20260506025701 53 169 5.0 9.0 0.00 0.10 0.01 91 1003.9
20260506025201 53 205 5.0 10.0 0.00 0.10 0.01 91 1004.0
20260506024701 53 213 6.0 11.0 0.00 0.10 0.01 91 1004.0
20260506024201 53 191 7.0 11.0 0.00 0.10 0.01 91 1004.0
20260506023701 53 202 6.0 10.0 0.00 0.10 0.01 91 1003.9
20260506023203 53 219 6.0 11.0 0.00 0.10 0.01 91 1003.9
20260506022701 53 202 7.0 11.0 0.00 0.10 0.01 91 1003.9
20260506022200 53 190 7.0 12.0 0.00 0.10 0.01 91 1004.0
20260506021702 53 217 8.0 12.0 0.00 0.10 0.01 91 1003.8
20260506021515 53 192 7.0 11.0 0.00 0.10 0.01 91 1003.9
20260506021008 53 171 7.0 11.0 0.00 0.10 0.01 91 1003.8
20260506020202 53 207 7.0 13.0 0.00 0.10 0.01 91 1003.8
20260506015702 53 195 7.0 13.0 0.00 0.10 0.01 91 1003.9
20260506015203 53 193 6.0 12.0 0.00 0.10 0.01 92 1004.0
20260506014702 53 193 7.0 12.0 0.00 0.10 0.01 91 1003.9
20260506014510 53 187 7.0 12.0 0.00 0.10 0.01 91 1004.0
20260506013701 53 180 6.0 12.0 0.00 0.10 0.01 91 1003.9
20260506013201 53 190 6.0 10.0 0.00 0.10 0.01 91 1004.1
20260506012701 53 200 6.0 9.0 0.00 0.10 0.01 91 1004.1
20260506012203 54 189 6.0 8.0 0.00 0.10 0.01 91 1004.1
20260506011703 54 202 4.0 7.0 0.00 0.10 0.01 91 1004.1
20260506011201 54 176 5.0 10.0 0.00 0.10 0.01 91 1004.2
20260506010703 54 199 6.0 10.0 0.00 0.10 0.01 91 1004.3
20260506010202 54 200 6.0 9.0 0.00 0.10 0.01 91 1004.3
20260506010001 54 190 6.0 9.0 0.00 0.10 0.01 91 1004.2
20260506005201 54 192 6.0 9.0 0.00 0.10 0.01 91 1004.3
20260506004814 54 198 6.0 9.0 0.00 0.10 0.01 91 1004.3
20260506004752 54 188 6.0 9.0 0.00 0.10 0.01 91 1004.3
20260506003701 54 193 5.0 10.0 0.00 0.10 0.01 91 1004.4
20260506003203 54 218 5.0 10.0 0.00 0.10 0.01 91 1004.4
20260506002703 54 190 6.0 11.0 0.00 0.10 0.01 91 1004.5
20260506002201 54 189 6.0 11.0 0.00 0.10 0.01 91 1004.5
20260506001704 54 192 6.0 10.0 0.00 0.10 0.01 91 1004.6
20260506001202 54 199 6.0 10.0 0.00 0.10 0.01 91 1004.6
20260506000701 54 207 6.0 10.0 0.00 0.10 0.01 91 1004.7
20260506000204 54 195 6.0 11.0 0.00 0.10 0.01 91 1004.6
20260505235703 54 190 6.0 11.0 0.01 0.10 0.01 91 1004.7
20260505235202 54 210 5.0 9.0 0.01 0.10 0.01 91 1004.7
20260505235004 54 175 5.0 9.0 0.01 0.10 0.01 91 1004.7
20260505234210 54 203 5.0 10.0 0.01 0.10 0.01 91 1004.7
20260505234014 54 186 5.0 10.0 0.01 0.10 0.01 91 1004.8